STARLINK-11189, 60188

Orbit data source: Space-Track

STARLINK-11189, 60188 is a payload satellite owned by SpaceX/Seattle (US) in LEO that was launched on Wed, 03 Jul 2024 UTC via an FALCON 9 launch vehicle from the Air Force Eastern Test Range (AFETR). Payload-class satellites include a variety of spacecraft equipped with specific instruments for various scientific and technological missions. These include communications satellites like Starlink; space stations such as the ISS; scientific satellites like the Hubble; Earth observation satellites from companies like Planet Labs, Umbra, and HawkEye 360; GPS; miniature CubeSats for education and research; and military/defense satellites.

Loading next visibility...
Identifier
60188, 2024-124F
Orbit
LEO
Last TLE update
17 hours ago
Origin
Manufacturer
SpaceX/Seattle
Mission
Operational Commercial Communications
Bus & Motor
STARLINK V2M, Unknown motor
Mass
730 kg wet, ~700 kg dry
Launch date (UTC)
2024-07-03 (1 year ago)
Launch vehicle
FALCON 9
Launch site
Air Force Eastern Test Range (AFETR)
Object type
Payload
Rocket body
Debris
Shape & HBR
Box + 2 Pan, 29 m
Radar Cross Section
36.964 m², Large (>1 m²)

Expand to show TLE details & history

TLE from 17 hours ago
0 STARLINK-11189
1 60188U 24124F   25181.71584561 -.00000979  00000-0 -32200-5 0  9999
2 60188  53.1579 323.7691 0001182 292.4021  67.6871 15.69704312 56956
Epoch: 2025-06-30T17:10Z
TLE epoch observation values (Epoch: 2025-06-30T17:10:49.06Z)
Latitude
-0.00008°
Longitude
147.04296°
Altitude
360.356 km
Speed
7.694 km/s
True Right ascension
21h 35m 04s
True Declination
0° 00' 00"
Sunlit
Object was in full shadow at epoch
Visualization orbit readout
Latitude
35.40535°
Longitude
-68.50405°
Altitude
363.152 km
Speed
7.696 km/s
Apparent Right ascension
08h 36m 55s
Apparent Declination
-1° 06' 24"
Sunlit
Object is in daylight
Visualization observer readout
Local Sidereal Time
22:11:51
Azimuth
35.108° NE
Elevation
-45.591°
Doppler factor
1
Orbital elements
Apogee altitude
360.801 km
Perigee altitude
359.208 km
Semi-major axis
6,738.141 km
Eccentricity
0.00012
Inclination
53.1579°
RAAN
323.7691°
Arg. of periapsis
292.4021°
True anomaly
Unknown
Mean anomaly
67.6871°
Eccentric anomaly
Unknown
Mean motion
3.92404 °/min
Orbital period
91.74 mins
BSTAR
-0.00000322
Loading maneuver chart data...
Loading SW <> Apogee altitude chart data...
Loading historical data...
Loading historical data...
Loading historical data...
Loading historical data...
Loading historical data...
Loading historical data...
Loading historical data...

STARLINK-11189 Visibility forecast

Observer location: undefined°, undefined°

Span
Click to sort rows by Start time (UTC) header in descending order
Start Az.
Max El. time (UTC)
Max El. Az.
Max El.
End time (UTC)
End Az.
4 mins2025-07-01 11:41:23.602Z195.637° SSW2025-07-01 11:43:23.602Z134.406° SE29.975°2025-07-01 11:45:23.602Z72.978° E
|